Flag for U.S.A. Weather past 2 weeks in Idaho Falls, Idaho, U.S.A.

Now
78 °F

Sunny.


Feels Like: 79 °F
Forecast: 56 / 93 °F
Wind: No wind

Location: Fanning Field

Current Time: Jul 2, 2015 at 9:45:14 PM

Latest Report: Jul 2, 2015 at 8:53 PM


Visibility: 10 mi

Pressure: 29.87 "Hg

Humidity: 46%

Dew point: 56 °F

Location of Idaho FallsLocation

Historic Weather in Idaho Falls — Graph

°F

Idaho Falls temperature yesterday

Maximum temperature yesterday: 92 °F (at 4:53 PM)
Minimum temperature yesterday: 58 °F (at 6:53 AM)
Average temperature yesterday: 75 °F

Past Weeks' High & Low Weather Summary

 TemperatureHumidityPressure
High99 °F (Jun 29, 3:53 PM)93% (Jun 27, 5:53 AM)30.14 "Hg (Jun 27, 5:53 AM)
Low45 °F (Jun 20, 5:53 AM)10% (Jun 19, 8:53 PM)29.75 "Hg (Jun 21, 2:53 PM)
Average72 °F49%29.95 "Hg
* Reported Jun 17 7:53 PM — Jul 2 7:53 PM, Idaho Falls, Weather by CustomWeather, © 2015

Note: Actual official high and low records may vary slightly from our data, if they occured in-between our weather recording intervals... More about our weather records

Advertising

Idaho Falls weather history for previous 24 hours

 ConditionsComfort  
Time TempWeatherWind HumidityBarometerVisibility
7:53 PM
Thu, Jul 2
87 °FSunny.7 mph28%29.86 "Hg10 mi
6:53 PM89 °FSunny.7 mph27%29.88 "Hg10 mi
5:53 PM91 °FSunny.7 mph20%29.89 "Hg10 mi
4:53 PM95 °FSunny.8 mph14%29.89 "Hg10 mi
3:53 PM90 °FSunny.3 mph25%29.93 "Hg10 mi
2:53 PM90 °FSunny.3 mph21%29.95 "Hg7 mi
1:53 PM87 °FSunny.6 mph32%29.97 "Hg8 mi
12:53 PM87 °FSunny.6 mph30%29.97 "Hg7 mi
11:53 AM82 °FSunny.6 mph34%29.99 "Hg7 mi
10:53 AM79 °FSunny.9 mph39%29.98 "Hg7 mi
9:53 AM75 °FSunny.8 mph48%29.99 "Hg10 mi
8:53 AM70 °FSunny.9 mph57%29.98 "Hg8 mi
7:53 AM65 °FSunny.8 mph68%29.98 "Hg10 mi
6:53 AM59 °FClear.8 mph81%29.97 "Hg10 mi
5:53 AM57 °FClear.6 mph87%29.96 "Hg10 mi
4:53 AM59 °FClear.8 mph84%29.95 "Hg10 mi
3:53 AM59 °FClear.7 mph84%29.94 "Hg10 mi
2:53 AM61 °FClear.7 mph78%29.94 "Hg10 mi
1:53 AM60 °FClear.3 mph80%29.93 "Hg10 mi
12:53 AM64 °FClear.8 mph73%29.91 "Hg10 mi
11:53 PM
Wed, Jul 1
63 °FClear.No wind78%29.90 "Hg10 mi
10:53 PM72 °FSunny.3 mph59%29.88 "Hg10 mi
9:53 PM81 °FSunny.6 mph38%29.86 "Hg10 mi
Weather by CustomWeather, © 2015

See weather overviewHow to use our weather pages